User: anonymous   Login
Location: Unspecified
(0.0000°N, 0.0000°E)
Time: 07:45:02
(UTC+00:00)
Language:

STARLINK-31355 - Orbit

View from above orbital plane
View from above orbital plane
View from above satellite
View from above satellite

Ground track
Ground track

The orbit is defined by the following mean orbital elements,

1 58978U          26144.92430072 +.00000000 +00000-0 +76723-4 0 00003
2 58978  53.1611 302.6881 0001061  90.8172 269.2950 15.30198177    04
Epoch (UTC): 24 May 2026 22:10:59
Eccentricity: 0.0001061
inclination: 53.1611°
perigee height: 474 km
apogee height: 476 km
right ascension of ascending node: 302.6881°
argument of perigee: 90.8172°
revolutions per day: 15.30198177
mean anomaly at epoch: 269.2950°

The dashed part of the orbit path shows where the satellite is in the earth's shadow,  

DLR